TimeCST,TemperatureF,Dew PointF,Humidity,Sea Level PressureIn,VisibilityMPH,Wind Direction,Wind SpeedMPH,Gust SpeedMPH,PrecipitationIn,Events,Conditions,WindDirDegrees,DateUTC
12:53 AM,60.1,55.9,86,30.06,10.0,South,9.2,-,N/A,,Partly Cloudy,180,2013-01-29 06:53:00
1:53 AM,61.0,55.9,83,30.04,10.0,South,15.0,24.2,N/A,,Clear,180,2013-01-29 07:53:00
2:53 AM,59.0,55.0,87,30.03,10.0,South,11.5,-,N/A,,Clear,180,2013-01-29 08:53:00
3:53 AM,59.0,55.9,90,30.00,10.0,South,8.1,-,N/A,,Partly Cloudy,170,2013-01-29 09:53:00
4:37 AM,59.0,55.4,88,30.00,10.0,South,8.1,-,N/A,,Mostly Cloudy,180,2013-01-29 10:37:00
4:53 AM,59.0,55.9,90,30.00,10.0,South,12.7,-,N/A,,Overcast,190,2013-01-29 10:53:00
5:53 AM,59.0,55.9,90,30.02,10.0,South,9.2,-,N/A,,Overcast,190,2013-01-29 11:53:00
6:53 AM,60.1,57.0,90,30.02,10.0,South,10.4,-,N/A,,Overcast,190,2013-01-29 12:53:00
7:36 AM,60.8,57.2,88,30.01,10.0,South,11.5,-,N/A,,Overcast,190,2013-01-29 13:36:00
7:53 AM,61.0,57.9,90,30.01,10.0,South,11.5,-,N/A,,Overcast,180,2013-01-29 13:53:00
8:53 AM,63.0,57.9,84,29.99,10.0,South,13.8,19.6,N/A,,Overcast,180,2013-01-29 14:53:00
9:53 AM,64.0,59.0,84,29.97,10.0,South,15.0,23.0,N/A,,Overcast,190,2013-01-29 15:53:00
10:53 AM,64.0,59.0,84,29.95,10.0,South,9.2,19.6,N/A,,Overcast,190,2013-01-29 16:53:00
11:53 AM,66.0,59.0,78,29.90,10.0,South,11.5,19.6,N/A,,Overcast,180,2013-01-29 17:53:00
12:53 PM,68.0,59.0,73,29.86,10.0,South,15.0,21.9,N/A,,Overcast,190,2013-01-29 18:53:00
1:53 PM,70.0,59.0,68,29.80,10.0,South,13.8,27.6,N/A,,Overcast,180,2013-01-29 19:53:00
2:32 PM,69.8,59.0,68,29.78,10.0,South,12.7,25.3,N/A,,Mostly Cloudy,190,2013-01-29 20:32:00
2:39 PM,69.8,59.0,68,29.78,10.0,South,13.8,21.9,N/A,,Mostly Cloudy,180,2013-01-29 20:39:00
2:53 PM,72.0,60.1,66,29.77,10.0,South,15.0,26.5,N/A,,Mostly Cloudy,190,2013-01-29 20:53:00
3:53 PM,71.1,60.1,68,29.75,10.0,South,10.4,26.5,N/A,,Mostly Cloudy,170,2013-01-29 21:53:00
4:00 PM,71.6,60.8,69,29.76,10.0,South,13.8,25.3,N/A,,Mostly Cloudy,180,2013-01-29 22:00:00
4:53 PM,71.1,60.1,68,29.72,10.0,SSE,10.4,17.3,N/A,,Mostly Cloudy,160,2013-01-29 22:53:00
5:53 PM,70.0,61.0,73,29.71,10.0,South,9.2,-,N/A,,Scattered Clouds,170,2013-01-29 23:53:00
6:53 PM,70.0,61.0,73,29.68,10.0,South,10.4,18.4,N/A,,Partly Cloudy,170,2013-01-30 00:53:00
7:53 PM,71.1,60.1,68,29.64,10.0,South,16.1,25.3,N/A,,Clear,170,2013-01-30 01:53:00
8:53 PM,71.1,61.0,70,29.60,10.0,South,18.4,34.5,N/A,,Clear,170,2013-01-30 02:53:00
9:53 PM,71.1,61.0,70,29.55,10.0,South,16.1,32.2,0.00,,Mostly Cloudy,170,2013-01-30 03:53:00
10:53 PM,71.1,62.1,73,29.52,10.0,South,26.5,41.4,0.00,,Scattered Clouds,180,2013-01-30 04:53:00
11:53 PM,72.0,62.1,71,29.47,10.0,South,23.0,38.0,0.00,Rain,Light Rain,180,2013-01-30 05:53:00